FW1697 Weather Reports


Display with metric or nautical units.
time (UTC)temp
F
wind
direction
speed
MPH
gust
MPH
rain 1hr
in
rain 24hr
in
rain mn
in
humidity
%
barometer
mb
20260506061706 39 21 1.0 1.0 0.00 0.00 0.00 91 1015.4
20260506061206 39 1 1.0 2.0 0.00 0.00 0.00 91 1015.4
20260506060705 39 4 3.0 8.0 0.00 0.00 0.00 91 1015.3
20260506060205 39 22 5.0 8.0 0.00 0.00 0.00 92 1015.3
20260506051207 36 38 2.0 3.0 0.00 0.00 0.00 92 1015.3
20260506050705 36 68 1.0 2.0 0.00 0.00 0.00 91 1015.3
20260506050205 35 41 0.0 1.0 0.00 0.00 0.00 91 1015.3
20260506044706 35 60 0.0 1.0 0.00 0.00 0.00 91 1015.2
20260506044205 35 57 0.0 2.0 0.00 0.00 0.00 90 1015.3
20260506043705 35 47 0.0 1.0 0.00 0.00 0.00 90 1015.2
20260506043205 36 27 1.0 1.0 0.00 0.00 0.00 90 1015.2
20260506042705 36 18 0.0 1.0 0.00 0.00 0.00 90 1015.2
20260506041705 36 10 0.0 1.0 0.00 0.00 0.00 90 1015.2
20260506041205 36 29 0.0 1.0 0.00 0.00 0.00 90 1015.2
20260506040705 36 36 0.0 1.0 0.00 0.00 0.00 90 1015.2
20260506040206 37 37 0.0 1.0 0.00 0.00 0.00 90 1015.3
20260506035707 37 37 0.0 0.0 0.00 0.00 0.00 90 1015.2
20260506034705 37 37 1.0 1.0 0.00 0.00 0.00 90 1015.3
20260506034206 37 37 0.0 1.0 0.00 0.00 0.00 90 1015.3
20260506033706 37 37 1.0 2.0 0.00 0.00 0.00 90 1015.3
20260506033206 38 32 1.0 5.0 0.00 0.00 0.00 90 1015.3
20260506032706 38 3 2.0 5.0 0.00 0.00 0.00 90 1015.3
20260506031707 38 1 1.0 5.0 0.00 0.00 0.00 90 1015.3
20260506031206 38 6 1.0 5.0 0.00 0.00 0.00 90 1015.3
20260506030706 38 1 1.0 5.0 0.00 0.00 0.00 91 1015.3
20260506025706 38 1 1.0 6.0 0.00 0.00 0.00 91 1015.3
20260506024705 37 50 1.0 2.0 0.00 0.00 0.00 90 1015.3
20260506024207 37 50 0.0 1.0 0.00 0.00 0.00 90 1015.4
20260506023706 37 49 1.0 2.0 0.00 0.00 0.00 90 1015.3
20260506023205 37 55 0.0 2.0 0.00 0.00 0.00 90 1015.3
20260506022706 37 65 1.0 2.0 0.00 0.00 0.00 90 1015.3
20260506022206 37 0 0.0 1.0 0.00 0.00 0.00 90 1015.4
20260506021206 37 3 1.0 2.0 0.00 0.00 0.00 89 1015.4
20260506020705 37 0 1.0 5.0 0.00 0.00 0.00 89 1015.4
20260506020206 36 6 1.0 5.0 0.00 0.00 0.00 89 1015.4
20260506015206 36 24 0.0 3.0 0.00 0.00 0.00 88 1015.5
20260506014706 36 35 1.0 2.0 0.00 0.00 0.00 88 1015.4
20260506014206 36 40 0.0 1.0 0.00 0.00 0.00 88 1015.5
20260506013704 37 51 0.0 2.0 0.00 0.00 0.00 88 1015.4
20260506013206 37 55 1.0 2.0 0.00 0.00 0.00 88 1015.4
20260506012706 37 47 1.0 2.0 0.00 0.00 0.00 88 1015.4
20260506011705 38 5 1.0 2.0 0.00 0.00 0.00 88 1015.4
20260506011206 38 28 1.0 1.0 0.00 0.00 0.00 88 1015.4
20260506010206 38 22 1.0 5.0 0.00 0.00 0.00 88 1015.4
20260506005706 38 8 2.0 5.0 0.00 0.00 0.00 88 1015.5
20260506005206 37 13 1.0 6.0 0.00 0.00 0.00 88 1015.5
20260506004205 37 359 4.0 7.0 0.00 0.00 0.00 87 1015.6
20260506003706 37 0 2.0 5.0 0.00 0.00 0.00 87 1015.6
20260506003206 37 19 1.0 2.0 0.00 0.00 0.00 86 1015.6
20260506002706 37 22 1.0 2.0 0.00 0.00 0.00 86 1015.6
20260506002205 37 21 0.0 1.0 0.00 0.00 0.00 87 1015.7
20260506001706 37 1 0.0 2.0 0.00 0.00 0.00 87 1015.6
20260506000726 38 1 2.0 5.0 0.00 0.00 0.00 87 1015.7
20260506000206 38 0 2.0 5.0 0.00 0.00 0.00 87 1015.7
20260505235206 38 0 2.0 5.0 0.00 0.00 0.00 87 1015.8
20260505234706 38 0 1.0 2.0 0.00 0.00 0.00 87 1015.8
20260505234206 38 3 0.0 2.0 0.00 0.00 0.00 86 1015.8
20260505233205 38 1 1.0 1.0 0.00 0.00 0.00 85 1015.9
20260505231706 38 7 0.0 1.0 0.00 0.00 0.00 84 1016.0
20260505230712 39 0 2.0 5.0 0.00 0.00 0.00 84 1015.9
20260505230205 39 0 1.0 2.0 0.00 0.00 0.00 84 1016.0
20260505225206 40 1 1.0 2.0 0.00 0.00 0.00 84 1016.0
20260505224707 40 3 1.0 6.0 0.00 0.00 0.00 84 1015.9
20260505224205 40 6 1.0 2.0 0.00 0.00 0.00 83 1015.9
20260505223705 40 17 1.0 2.0 0.00 0.00 0.00 83 1015.9
20260505223206 40 29 2.0 3.0 0.00 0.00 0.00 83 1015.9
20260505222706 41 36 1.0 5.0 0.00 0.00 0.00 83 1015.9
20260505222206 41 27 2.0 5.0 0.00 0.00 0.00 84 1016.0
20260505221706 41 49 1.0 5.0 0.00 0.00 0.00 84 1016.0
20260505221205 41 31 2.0 5.0 0.00 0.00 0.00 84 1016.0
20260505220705 41 42 1.0 5.0 0.00 0.00 0.00 84 1016.0
20260505215706 41 40 3.0 7.0 0.00 0.00 0.00 85 1016.0
20260505215206 41 46 3.0 6.0 0.00 0.00 0.00 85 1016.0
20260505214705 41 46 3.0 6.0 0.00 0.00 0.00 85 1016.0
20260505214206 41 42 2.0 6.0 0.00 0.00 0.00 85 1016.1
20260505213706 41 35 2.0 7.0 0.00 0.00 0.00 85 1016.1
20260505212205 41 35 2.0 8.0 0.00 0.00 0.00 85 1016.1
20260505211706 41 32 3.0 8.0 0.00 0.00 0.00 85 1016.1
20260505211205 41 30 2.0 7.0 0.00 0.00 0.00 85 1016.2
20260505210706 41 24 4.0 8.0 0.00 0.00 0.00 85 1016.2
20260505210206 41 24 4.0 8.0 0.00 0.00 0.00 85 1016.2
20260505205707 41 37 4.0 8.0 0.00 0.00 0.00 85 1016.2
20260505205207 42 37 3.0 7.0 0.00 0.00 0.00 85 1016.3
20260505204707 42 33 3.0 10.0 0.00 0.00 0.00 85 1016.3
20260505204207 42 33 2.0 8.0 0.00 0.00 0.00 86 1016.2
20260505203707 42 45 3.0 7.0 0.00 0.00 0.00 86 1016.2
20260505203206 42 41 4.0 9.0 0.00 0.00 0.00 86 1016.2
20260505202706 42 42 3.0 6.0 0.00 0.00 0.00 86 1016.2
20260505202206 42 27 3.0 7.0 0.00 0.00 0.00 86 1016.1
20260505201707 42 39 2.0 6.0 0.00 0.00 0.00 86 1016.1
20260505201206 42 37 3.0 8.0 0.00 0.00 0.00 86 1016.1
20260505200706 42 52 3.0 9.0 0.00 0.00 0.00 86 1016.1
20260505200206 42 42 3.0 8.0 0.00 0.00 0.00 86 1016.1
20260505195706 42 38 5.0 10.0 0.00 0.00 0.00 86 1016.0
20260505194706 42 50 4.0 10.0 0.00 0.00 0.00 86 1016.0
20260505193706 42 32 4.0 13.0 0.00 0.00 0.00 86 1015.9
20260505192705 42 39 3.0 12.0 0.00 0.00 0.00 86 1015.9
20260505192206 42 55 3.0 10.0 0.00 0.00 0.00 86 1015.7
20260505191705 43 33 6.0 17.0 0.00 0.00 0.00 86 1015.8
20260505191206 43 35 6.0 13.0 0.00 0.00 0.00 86 1015.7
20260505190705 43 30 6.0 10.0 0.00 0.00 0.00 86 1015.7
20260505190206 43 42 6.0 10.0 0.00 0.00 0.00 86 1015.7
20260505185706 43 34 5.0 12.0 0.00 0.00 0.00 86 1015.7
20260505185206 43 54 4.0 7.0 0.00 0.00 0.00 86 1015.7
20260505184706 43 57 4.0 13.0 0.00 0.00 0.00 85 1015.5
20260505184206 43 40 3.0 6.0 0.00 0.00 0.00 85 1015.5
20260505183706 43 44 4.0 8.0 0.00 0.00 0.00 85 1015.5
20260505183206 43 43 6.0 13.0 0.00 0.00 0.00 85 1015.4
20260505182706 44 32 6.0 13.0 0.00 0.00 0.00 86 1015.5
20260505182206 44 46 7.0 14.0 0.00 0.00 0.00 85 1015.4
20260505181706 44 34 6.0 8.0 0.00 0.00 0.00 85 1015.4
20260505181205 44 31 5.0 7.0 0.00 0.00 0.00 84 1015.5
20260505180705 44 46 4.0 13.0 0.00 0.00 0.00 84 1015.5
20260505180206 44 44 5.0 13.0 0.00 0.00 0.00 84 1015.5
20260505175207 44 31 5.0 10.0 0.00 0.00 0.00 83 1015.5
20260505174706 44 38 5.0 10.0 0.00 0.00 0.00 83 1015.5
20260505174206 44 38 3.0 8.0 0.00 0.00 0.00 83 1015.5
20260505173705 44 34 5.0 10.0 0.00 0.00 0.00 83 1015.5
20260505172206 45 33 5.0 14.0 0.00 0.00 0.00 82 1015.5
20260505170205 45 25 6.0 8.0 0.00 0.00 0.00 82 1015.5
20260505165706 45 20 7.0 13.0 0.00 0.00 0.00 82 1015.5
20260505164705 45 22 6.0 10.0 0.00 0.00 0.00 84 1015.3
20260505164206 45 34 5.0 10.0 0.00 0.00 0.00 83 1015.3
20260505163705 45 36 6.0 12.0 0.00 0.00 0.00 83 1015.3
20260505163205 45 8 6.0 12.0 0.00 0.00 0.00 83 1015.3
20260505162706 45 43 6.0 13.0 0.00 0.00 0.00 82 1015.3
20260505162205 45 20 7.0 14.0 0.00 0.00 0.00 82 1015.3
20260505161706 46 32 7.0 14.0 0.00 0.00 0.00 82 1015.2
20260505160705 46 30 7.0 12.0 0.00 0.00 0.00 83 1015.2
20260505160206 46 44 5.0 10.0 0.00 0.00 0.00 84 1015.2
20260505153205 46 29 8.0 17.0 0.00 0.00 0.00 83 1014.9
20260505152708 47 20 7.0 14.0 0.00 0.00 0.00 83 1014.9
20260505152205 47 26 9.0 20.0 0.00 0.00 0.00 83 1014.8
20260505151705 47 10 7.0 20.0 0.00 0.00 0.00 83 1014.7
20260505151205 47 33 7.0 14.0 0.00 0.00 0.00 82 1014.7
20260505150707 47 34 7.0 12.0 0.00 0.00 0.00 81 1014.7
20260505150205 48 18 7.0 15.0 0.00 0.00 0.00 80 1014.7
20260505140206 48 16 7.0 13.0 0.00 0.00 0.00 82 1014.7
20260505130207 46 32 5.0 13.0 0.00 0.00 0.00 88 1014.6
20260505124705 46 22 5.0 8.0 0.00 0.00 0.00 87 1014.5
20260505124207 46 27 6.0 12.0 0.00 0.00 0.00 87 1014.5
20260505123707 46 14 6.0 14.0 0.00 0.00 0.00 86 1014.5
20260505123205 47 28 5.0 10.0 0.00 0.00 0.00 86 1014.5
20260505122706 47 25 7.0 14.0 0.00 0.00 0.00 85 1014.4
20260505121706 48 27 6.0 12.0 0.00 0.00 0.00 86 1014.3
20260505120705 47 15 7.0 15.0 0.00 0.00 0.00 85 1014.4
20260505120206 47 31 6.0 10.0 0.00 0.00 0.00 85 1014.3
20260505115706 47 31 6.0 13.0 0.00 0.00 0.00 85 1014.3
20260505115207 47 15 4.0 8.0 0.00 0.00 0.00 85 1014.3
20260505114206 47 32 6.0 14.0 0.00 0.00 0.00 85 1014.2
20260505113707 47 15 8.0 13.0 0.00 0.00 0.00 86 1014.2
20260505113205 47 25 6.0 13.0 0.00 0.00 0.00 86 1014.2
20260505112205 47 40 5.0 10.0 0.00 0.00 0.00 86 1014.1
20260505111206 47 11 7.0 13.0 0.00 0.00 0.00 85 1014.1
20260505110207 48 10 5.0 12.0 0.00 0.00 0.00 84 1014.1
20260505102205 49 356 7.0 14.0 0.00 0.00 0.00 82 1013.9
20260505101706 49 39 5.0 10.0 0.00 0.00 0.00 82 1013.9
20260505100705 48 11 5.0 12.0 0.00 0.00 0.00 82 1013.8
20260505100206 48 19 3.0 8.0 0.00 0.00 0.00 82 1013.8
20260505095706 48 5 5.0 7.0 0.00 0.00 0.00 82 1013.9
20260505094707 48 17 3.0 12.0 0.00 0.01 0.00 81 1013.8
20260505094206 48 21 4.0 8.0 0.00 0.01 0.00 80 1013.9
20260505093706 48 18 5.0 12.0 0.00 0.01 0.00 80 1013.9
20260505093205 49 11 8.0 10.0 0.00 0.01 0.00 79 1013.8
20260505092706 49 3 5.0 12.0 0.00 0.01 0.00 78 1013.8
20260505092205 49 8 3.0 12.0 0.00 0.01 0.00 78 1013.8
20260505091206 50 11 3.0 10.0 0.00 0.01 0.00 76 1013.7
20260505090705 51 30 6.0 10.0 0.00 0.01 0.00 76 1013.7
20260505090205 51 21 4.0 8.0 0.00 0.01 0.00 76 1013.7
20260505085205 50 22 2.0 6.0 0.00 0.01 0.00 78 1013.7
20260505084707 49 16 3.0 8.0 0.00 0.01 0.00 77 1013.6
20260505083708 50 351 8.0 10.0 0.00 0.01 0.00 76 1013.7
20260505083206 50 333 8.0 12.0 0.00 0.01 0.00 76 1013.7
20260505082706 50 333 9.0 14.0 0.00 0.01 0.00 77 1013.6
20260505082205 51 343 5.0 10.0 0.00 0.01 0.00 79 1013.6
20260505081705 50 336 7.0 15.0 0.00 0.01 0.00 78 1013.6
20260505080706 49 353 6.0 10.0 0.00 0.01 0.00 79 1013.6
20260505080205 49 348 6.0 13.0 0.00 0.01 0.00 78 1013.6
20260505075705 49 334 10.0 13.0 0.00 0.01 0.00 78 1013.6
20260505075205 49 341 11.0 14.0 0.00 0.01 0.00 78 1013.6
20260505074706 49 341 11.0 20.0 0.00 0.01 0.00 79 1013.5
20260505074206 49 347 7.0 12.0 0.00 0.01 0.00 79 1013.5
20260505073705 48 342 8.0 15.0 0.00 0.01 0.00 79 1013.6
20260505073206 48 350 12.0 17.0 0.00 0.01 0.00 79 1013.6
20260505072707 48 316 6.0 17.0 0.00 0.01 0.00 79 1013.6
20260505071706 48 337 9.0 14.0 0.00 0.01 0.00 80 1013.5
20260505071205 48 325 6.0 10.0 0.00 0.01 0.00 80 1013.5
20260505070707 47 338 8.0 12.0 0.00 0.01 0.00 80 1013.5
20260505070205 47 338 12.0 17.0 0.00 0.01 0.00 81 1013.6
20260505065705 47 329 6.0 10.0 0.00 0.01 0.00 82 1013.5
20260505065205 47 342 5.0 7.0 0.00 0.01 0.00 82 1013.6
20260505064705 46 335 7.0 14.0 0.00 0.01 0.00 83 1013.6
20260505064206 46 326 9.0 14.0 0.00 0.01 0.00 83 1013.7
20260505063705 45 327 9.0 12.0 0.00 0.01 0.00 84 1013.6
20260505063205 45 324 6.0 14.0 0.00 0.01 0.00 85 1013.6
20260505062705 45 341 10.0 14.0 0.00 0.01 0.00 85 1013.6
20260505062205 44 332 7.0 14.0 0.00 0.01 0.00 86 1013.6